Terug naar catalogus

TOMORROW-S10

ActiefWeerSSO
NORAD 67398·PAYLOAD·🇺🇸 United States

Gelanceerd Jan 11, 2026 vanaf Vandenberg Space Force Base

Loading…

Volgende Passages (komende 24 uur)

TLE

VersSource: Space-Track

Epoch: Sep 14, 2026, 11:04 UTC

1 67398U 26004AM  26257.46122811  .00003299  00000-0  15545-3 0  9998
2 67398  97.4634 255.6823 0007335  44.4514 315.7309 15.20192060 37328

Volg TOMORROW-S10 in realtime met AllMySat

Download on the App Store